Orbital Elements at Epoch 2459200.5 (2020-Dec-17.0) TDB
Reference: JPL 27 (heliocentric ecliptic J2000)
Element | Value | Uncertainty (1-sigma) | Units |
e | .1059601343787135 | 4.9089e-08 | |
a | 3.152673372545296 | 2.7121e-08 | au |
q | 2.818615678338204 | 1.5326e-07 | au |
i | 6.28785629746507 | 5.3214e-06 | deg |
node | 29.46477103098383 | 3.8793e-05 | deg |
peri | 2.065149041602233 | 4.3699e-05 | deg |
M | 205.078839542233 | 2.1532e-05 | deg |
tp | 2460080.383422971620 (2023-May-15.88342297) | 0.00012704 | TDB |
period | 2044.640198497186 5.60 | 2.6383e-05 7.223e-08 | d yr |
n | .1760700979392857 | 2.272e-09 | deg/d |
Q | 3.486731066752387 | 2.9995e-08 | au |
|
| | Orbit Determination Parameters
Additional Information
|